DW8852 Weather Reports


time (UTC)temp
F
wind
direction
speed
knots
gust
knots
rain 1hr
in
rain 24hr
in
rain mn
in
humidity
%
barometer
mb
20260906173016 74 134 4.3 8.7 0.00 0.00 0.00 82 1009.1
20260906171516 73 134 2.6 8.7 0.00 0.00 0.00 84 1009.2
20260906170020 72 134 1.7 7.0 0.00 0.00 0.00 85 1009.4
20260906164510 72 134 2.6 6.1 0.00 0.00 0.00 86 1009.6
20260906163009 71 134 0.9 7.0 0.00 0.00 0.00 86 1009.7
20260906161511 71 134 5.2 10.4 0.00 0.00 0.00 86 1009.6
20260906160009 71 134 3.5 8.7 0.00 0.00 0.00 87 1009.5
20260906154512 71 134 0.9 9.6 0.00 0.00 0.00 88 1009.7
20260906153007 70 134 3.5 7.8 0.00 0.00 0.00 88 1009.6
20260906151507 70 134 1.7 7.0 0.00 0.00 0.00 89 1009.9
20260906150006 70 134 1.7 7.8 0.00 0.00 0.00 88 1009.8
20260906144504 70 134 0.9 7.8 0.00 0.00 0.00 89 1009.7
20260906143004 70 134 5.2 8.7 0.00 0.00 0.00 89 1009.6
20260906141502 69 134 2.6 7.0 0.00 0.00 0.00 90 1009.7
20260906140001 69 134 3.5 9.6 0.00 0.00 0.00 91 1009.7
20260906134602 69 134 0.9 7.0 0.00 0.00 0.00 92 1009.4
20260906133121 68 134 1.7 7.8 0.00 0.00 0.00 93 1009.3
20260906131557 68 134 0.0 7.0 0.00 0.00 0.00 93 1009.2
20260906130056 67 134 0.9 5.2 0.00 0.00 0.00 93 1009.0
20260906124554 67 134 0.0 3.5 0.00 0.00 0.00 93 1008.9
20260906123054 66 134 0.0 1.7 0.00 0.00 0.00 92 1008.9
20260906121553 66 134 0.0 0.9 0.00 0.00 0.00 92 1008.9
20260906120051 66 134 0.0 0.0 0.00 0.00 0.00 92 1008.9
20260906114604 67 134 0.0 0.0 0.00 0.00 0.00 92 1008.7
20260906113051 67 134 0.0 1.7 0.00 0.00 0.00 92 1008.4
20260906111550 67 134 0.0 1.7 0.00 0.00 0.00 91 1008.4
20260906110045 67 134 0.0 0.9 0.00 0.00 0.00 91 1008.4
20260906104558 68 134 0.0 0.9 0.00 0.00 0.00 90 1008.3
20260906103043 68 134 0.0 0.0 0.00 0.00 0.00 91 1008.4
20260906101541 68 134 0.0 1.7 0.00 0.00 0.00 91 1008.2
20260906100041 68 134 0.0 4.3 0.00 0.00 0.00 90 1008.2
20260906094539 69 134 0.9 5.2 0.00 0.00 0.00 90 1007.9
20260906093037 69 134 0.9 3.5 0.00 0.00 0.00 89 1007.7
20260906091536 69 134 0.0 4.3 0.00 0.00 0.00 89 1007.5
20260906090037 69 134 0.9 5.2 0.00 0.00 0.00 89 1007.5
20260906084535 70 134 0.9 3.5 0.00 0.00 0.00 88 1007.7
20260906083036 70 134 0.9 6.1 0.00 0.00 0.00 88 1007.4
20260906081531 70 134 2.6 7.0 0.00 0.00 0.00 88 1007.1
20260906080033 71 134 0.9 6.1 0.00 0.00 0.00 88 1007.3
20260906074530 71 134 1.7 7.0 0.00 0.00 0.00 87 1007.3
20260906073032 71 134 2.6 5.2 0.00 0.00 0.00 87 1007.4
20260906071526 71 134 1.7 4.3 0.00 0.00 0.00 86 1007.6
20260906070022 71 134 0.0 1.7 0.00 0.00 0.00 86 1007.8
20260906064521 72 134 0.0 3.5 0.00 0.00 0.00 86 1008.0
20260906063021 72 134 0.0 4.3 0.00 0.00 0.00 86 1007.8
20260906061520 72 134 0.9 4.3 0.00 0.00 0.00 86 1007.9
20260906060020 72 134 0.0 3.5 0.00 0.00 0.00 86 1007.9
20260906054518 72 134 0.9 4.3 0.00 0.00 0.00 87 1007.8
20260906053017 72 134 0.0 1.7 0.00 0.00 0.00 86 1007.9
20260906051515 72 134 0.0 3.5 0.00 0.00 0.00 86 1007.9
20260906050014 72 134 0.0 0.0 0.00 0.00 0.00 86 1008.1
20260906044512 72 134 0.0 0.9 0.00 0.00 0.00 86 1008.1
20260906043013 73 134 0.0 0.9 0.00 0.00 0.00 85 1008.1
20260906041516 73 134 0.0 0.0 0.00 0.00 0.00 85 1008.3
20260906040011 73 134 0.0 0.0 0.00 0.00 0.00 85 1008.3
20260906034512 73 134 0.0 0.0 0.00 0.00 0.00 84 1008.2
20260906033011 73 134 0.0 0.0 0.00 0.00 0.00 84 1008.2
20260906031510 74 134 0.0 0.0 0.00 0.00 0.00 84 1008.0
20260906030010 74 134 0.0 0.0 0.00 0.00 0.00 83 1008.3
20260906024509 74 134 0.0 0.0 0.00 0.00 0.00 82 1008.4
20260906023018 75 134 0.0 0.0 0.00 0.00 0.00 82 1008.3
20260906021513 75 134 0.0 0.0 0.00 0.00 0.00 81 1007.9
20260906020008 75 134 0.0 0.9 0.00 0.00 0.00 81 1007.4
20260906014510 76 134 0.0 4.3 0.00 0.00 0.00 79 1007.0
20260906013008 76 134 0.9 4.3 0.00 0.00 0.00 79 1006.5
20260906011507 77 134 1.7 6.1 0.00 0.00 0.00 77 1006.2
20260906010006 77 134 0.9 8.7 0.00 0.00 0.00 76 1006.2
20260906004509 78 134 2.6 7.8 0.00 0.00 0.00 75 1006.0
20260906003006 79 134 3.5 7.0 0.00 0.00 0.00 73 1005.9
20260906001504 80 134 1.7 7.0 0.00 0.00 0.00 71 1005.8
20260906000005 80 134 0.9 8.7 0.00 0.00 0.00 70 1005.6
20260905234504 82 134 3.5 11.3 0.00 0.00 0.00 68 1005.6
20260905233012 82 132 5.2 11.3 0.00 0.00 0.00 66 1005.6
20260905231503 84 121 3.5 8.7 0.00 0.00 0.00 64 1005.3
20260905230002 84 121 1.7 8.7 0.00 0.00 0.00 64 1005.2
20260905224502 84 121 0.0 9.6 0.00 0.00 0.00 63 1004.9
20260905223002 84 120 0.0 8.7 0.00 0.00 0.00 64 1004.7
20260905221601 83 120 1.7 7.0 0.00 0.00 0.00 65 1004.8
20260905220059 82 120 0.9 5.2 0.00 0.00 0.00 66 1005.2
20260905214558 82 120 0.0 3.5 0.00 0.00 0.00 65 1005.4
20260905213058 84 120 0.0 5.2 0.00 0.00 0.00 64 1005.4
20260905211601 83 120 0.0 6.1 0.00 0.00 0.00 67 1005.4
20260905210057 83 123 0.9 8.7 0.00 0.00 0.00 68 1005.2
20260905204550 82 122 2.6 8.7 0.00 0.00 0.00 71 1005.4
20260905203055 81 126 1.7 9.6 0.00 0.00 0.00 73 1005.8
20260905201547 81 126 1.7 7.8 0.00 0.00 0.00 74 1006.1
20260905200044 81 126 4.3 8.7 0.00 0.00 0.00 73 1006.7
20260905194544 80 126 4.3 7.0 0.00 0.00 0.00 74 1006.7
20260905193102 80 126 1.7 5.2 0.00 0.00 0.00 74 1006.9
20260905191543 80 126 0.0 3.5 0.00 0.00 0.00 74 1007.0
20260905190040 80 126 0.0 3.5 0.00 0.00 0.00 75 1007.2
20260905184539 79 126 0.0 3.5 0.00 0.00 0.00 76 1007.3
20260905183035 79 126 0.0 6.1 0.00 0.00 0.00 79 1007.3
20260905181532 78 126 0.0 5.2 0.00 0.00 0.00 80 1007.4
20260905180030 77 126 1.7 7.0 0.00 0.00 0.00 80 1007.6
20260905174525 76 126 0.9 7.8 0.00 0.00 0.00 84 1007.7